EHI
0 0 0 0 0 0 0 0 0 0 0 0 0 0 0 0 0 0 0 0 0 0 0 0 0 0 0 0 0 0 0 0 0 0 0 0 0 0 0 0 0 0 0
0 0 0 0 0 0 0 0 0 0 0 0 0 0 0 0 0 0 0 0 0 0 0 0 0 0 0 0 0 0 0 0 0 0 0 0 0 0 0 0 0 0 0
0 0 0 0 0 0 0 0 0 0 0 0 0 0 0 0 0 0 0 0 0 0 0 0 0 0 0 0 0 0 0 0 0 0 0 0 0 0 0 0 0 0 0
0 0 0 0 0 0 0 0 0 0 0 0 0 0 0 0 0 0 0 0 0 0 0 0 0 0 0 0 0 0 0 0 0 0 0 0 0 0 0 0 0 0 0
0 0 0 0 0 0 0 0 0 0 0 0 0 0 0 0 0 0 0 0 0 0 0 0 0 0 0 0 0 0 0 0 0 0 0 0 0 0 0 0 0 0 0
0 0 0 0 0 0 0 0 0 0 0 0 0 0 0 0 0 0 0 0 0 0 0 0 0 0 0 0 0 0 0 0 0 0 0 0 0 0 0 0 0 0 0
0 0 0 0 0 0 0 0 0 0 0 0 0 0 0 0 0 0 0 0 0 0 0 0 0 0 0 0 0 0 0 0 0 0 0 0 0 0 0 0 0 0 0
0 0 0 0 0 0 0 0 0 0 0 0 0 0 0 0 0 0 0 0 0 0 0 0 0 0 0 0 0 0 0 0 0 0 0 0 0 0 0 0 0 0 0
0 0 0 0 0 0 0 0 0 0 0 0 0 0 0 0 0 0 0 0 0 0 0 0 0 0 0 0 0 0 0 0 0 0 0 0 0 0 0 0 0 0 0
0 0 0 0 0 0 0 0 0 0 0 0 0 0 0 0 0 0 0 0 0 0 0 0 0 0 0 0 0 0 0 0 0 0 0 0 0 0 0 0 0 0 0
0 0 0 0 0 0 0 0 0 0 0 0 0 0 0 0 0 0 0 0 0 0 0 0 0 0 0 0 0 0 0 0 0 0 0 0 0 0 0 0 0 0 0
0 0 0 0 0 0 0 0 0 0 0 0 0 0 0 0 0 0 0 0 0 0 0 0 0 0 0 0 0 0 0 0 0 0 0 0 0 0 0 0 0 0 0
0 0 0 0 0 0 0 0 0 0 0 0 0 0 0 0 0 0 0 0 0 0 0 0 0 0 0 0 0 0 0 0 0 0 0 0 0 0 0 0 0 0 0
0 0 0 0 0 0 0 0 0 0 0 0 0 0 0 0 0 0 0 0 0 0 0 0 0 0 0 0 0 0 0 0 0 0 0 0 0 0 0 0 0 0 0
0 0 0 0 0 0 0 0 0 0 0 0 0 0 0 0 0 0 0 0 0 0 0 0 0 0 0 0 0 0 0 0 0 0 0 0 0 0 0 0 0 0 0
0 0 0 0 0 0 0 0 0 0 0 0 0 0 0 0 0 0 0 0 0 0 0 0 0 0 0 0 0 0 0 0 0 0 0 0 0 0 0 0 0 0 0
0 0 0 0 0 0 0 0 0 0 0 0 0 0 0 0 0 0 0 0 0 0 0 0 0 0 0 0 0 0 0 0 0 0 0 0 0 0 0 0 0 0 0
0 0 0 0 0 0 0 0 0 0 0 0 0 0 0 0 0 0 0 0 0 0 0 0 0 0 0 0 0 0 0 0 0 0 0 0 0 0 0 0 0 0 0
0 0 0 0 0 0 0 0 0 0 0 0 0 0 0 0 0 0 0 0 0 0 0 0 0 0 0 0 0 0 0 0 0 0 0 0 0 0 0 0 0 0 0
0 0 0 0 0 0 0 0 0 0 0 0 0 0 0 0 0 0 0 0 0 0 0 0 0 0 0 0 0 0 0 0 0 0 0 0 0 0 0 0 0 0 0
0 0 0 0 0 0 0 0 0 0 0 0 0 0 0 0 0 0 0 0 0 0 0 0 0 0 0 0 0 0 0 0 0 0 0 0 0 0 0 0 0 0 0
0 0 0 0 0 0 0 0 0 0 0 0 0 0 0 0 0 0 0 0 0 0 0 0 0 0 0 0 0 0 0 0 0 0 0 0 0 0 0 0 0 0 0
0 0 0 0 0 0 0 0 0 0 0 0 0 0 0 0 0 0 0 0 0 0 0 0 0 0 0 0 0 0 0 0 0 0 0 0 0 0 0 0 0 0 0
0 0 0 0 0 0 0 0 0 0 0 0 0 0 0 0 0 0 0 0 0 0 0 0 0 0 0 0 0 0 0 0 0 0 0 0 0 0 0 0 0 0 0
0 0 0 0 0 0 0 0 0 0 0 0 0 0 0 0 0 0 0 0 0 0 0 0 0 0 0 0 0 0 0 0 0 0 0 0 0 0 0 0 0 0 0
0 0 0 0 0 0 0 0 0 0 0 0 0 0 0 0 0 0 0 0 0 0 0 0 0 0 0 0 0 0 0 0 0 0 0 0 0 0 0 0 0 0 0
Wind_Speed
5 5 4 4 3 3 3 3 3 3 3 3 3 3 4 4 4 3 4 4 4 5 4 4 5 5 4 4 3 4 4 5 9 10 7 7 8 8 8 6 6 6 7
4 4 4 3 3 3 3 3 3 3 3 3 3 3 4 4 4 4 5 4 5 5 5 5 6 5 5 4 4 5 5 5 7 11 9 8 8 8 8 8 8 7 6
3 3 3 3 3 3 3 3 2 2 2 2 2 3 4 4 4 4 4 5 5 5 5 5 6 5 6 5 5 5 5 6 6 8 9 8 7 6 7 8 8 6 7
3 3 3 3 3 3 3 2 2 2 2 2 3 3 4 4 4 4 4 5 5 5 5 5 6 6 7 7 6 6 6 6 6 6 8 8 7 6 6 7 7 5 6
3 2 2 2 2 1 1 1 1 1 2 2 2 3 3 3 3 4 4 4 5 5 5 5 6 8 10 8 6 6 6 5 6 6 7 7 7 7 6 5 7 7 6
2 2 2 1 1 1 1 1 0 1 1 1 2 3 3 3 6 7 5 4 4 5 6 6 6 7 9 11 12 11 9 7 7 6 7 8 9 8 6 6 6 7 6
2 1 1 1 1 1 1 0 0 1 1 2 3 3 3 5 7 7 7 4 4 4 5 5 6 7 9 6 9 11 10 12 11 9 8 9 9 8 7 8 7 7 7
2 1 1 1 1 0 1 0 1 1 1 2 3 3 4 5 7 8 8 4 3 4 5 5 6 7 7 8 6 6 6 7 9 7 6 7 8 7 6 7 7 6 5
2 1 1 1 1 1 0 1 1 1 2 2 3 3 4 5 7 8 7 3 3 4 5 5 6 6 10 11 7 7 7 7 8 10 11 10 11 11 7 4 4 4 5
1 1 1 1 1 0 0 1 1 1 1 2 3 3 3 4 7 8 7 2 3 4 5 5 8 8 11 11 7 6 7 7 7 7 7 7 6 6 8 4 3 4 4
1 1 2 1 1 1 1 1 1 1 1 2 3 3 3 4 6 7 7 3 3 4 5 5 5 10 11 12 10 5 7 8 5 5 4 4 4 4 4 4 3 3 3
2 2 2 2 1 1 1 1 1 1 1 2 3 4 3 3 5 6 8 7 6 4 5 4 5 11 11 11 8 8 10 8 4 3 3 4 4 4 4 4 4 3 2
3 2 2 2 2 1 1 1 1 1 1 2 2 3 4 3 4 7 8 8 8 5 4 7 9 10 10 7 8 9 7 4 3 3 4 4 4 4 4 4 4 3 3
2 2 2 2 2 2 1 1 1 1 1 2 2 3 3 4 3 3 3 4 6 5 4 6 8 8 6 7 7 6 4 3 3 3 3 3 3 3 3 3 3 3 2
2 2 2 2 2 2 2 2 1 1 1 2 2 2 3 4 5 8 5 4 3 4 5 3 3 4 4 4 4 4 4 4 3 3 3 3 3 3 3 3 2 2 1
2 2 1 1 1 1 2 3 4 4 4 4 3 3 3 5 8 8 8 8 8 7 4 3 3 4 4 5 5 5 4 4 4 3 3 3 3 3 3 3 2 2 1
1 1 1 1 1 1 1 1 2 4 5 6 5 6 6 7 7 7 7 7 7 6 3 3 3 4 4 4 4 4 4 4 4 4 3 3 3 3 2 2 2 2 2
2 2 2 1 1 1 1 1 1 2 3 4 5 7 8 8 8 7 7 6 4 4 3 3 3 4 4 4 4 4 4 4 3 3 3 3 3 2 2 2 2 2 2
2 2 1 1 1 1 1 1 1 2 2 3 4 5 7 7 7 8 7 3 3 3 3 3 3 3 4 4 4 4 4 4 4 3 3 3 3 2 2 2 2 2 2
2 3 3 1 1 2 2 2 2 2 2 2 3 4 4 4 4 4 4 3 3 3 3 4 4 4 4 4 4 4 4 3 3 3 3 3 3 2 2 2 1 1 1
2 2 3 2 2 2 2 2 2 2 2 2 3 4 6 3 3 4 4 4 3 4 4 4 4 4 4 4 4 4 4 3 3 3 3 3 2 2 2 1 1 1 1
1 1 1 1 1 2 2 2 2 2 2 3 3 4 6 3 3 3 3 4 4 3 4 4 4 4 4 4 4 4 4 3 3 3 2 2 2 1 1 1 1 1 1
1 1 2 2 2 2 2 2 2 2 2 3 3 3 3 3 3 3 4 4 4 4 4 4 4 4 4 4 4 4 4 4 3 3 2 2 2 1 1 1 0 0 1
1 1 1 1 2 2 2 2 2 3 3 3 3 3 3 3 3 4 4 4 4 4 4 4 4 5 7 6 4 4 3 3 3 2 3 2 2 1 1 0 0 0 0
1 1 1 1 1 2 2 2 3 3 3 3 3 3 3 3 3 4 4 4 4 4 5 5 4 5 6 7 6 5 5 5 4 2 1 1 1 1 0 0 0 1 1
1 1 1 1 1 2 2 2 3 3 3 3 3 3 4 3 3 4 4 4 4 5 5 5 5 6 7 6 6 6 6 5 3 2 1 0 0 0 1 1 1 1 1
Wind_Direction
183 183 180 188 191 190 203 216 224 231 232 241 250 256 261 264 262 258 264 265 262 268 271 270 272 271 271 270 264 264 263 263 278 291 292 298 299 301 304 300 294 288 288
183 176 178 181 181 191 209 220 223 225 235 243 250 258 264 266 261 257 263 268 265 268 272 274 277 281 277 274 268 267 269 264 271 287 295 298 297 298 298 300 299 295 288
163 161 164 176 185 203 215 223 222 220 242 256 254 260 266 267 260 257 257 264 265 264 267 271 277 279 281 279 273 272 272 276 270 280 290 295 296 299 303 301 298 295 294
150 156 170 192 200 209 216 221 220 219 239 259 266 268 272 269 265 261 262 268 272 272 269 268 271 271 275 278 277 274 278 282 283 285 289 295 297 300 299 303 308 309 305
147 163 191 205 198 187 203 214 213 231 263 269 277 284 284 276 273 279 272 275 279 285 285 281 280 286 288 289 288 286 284 284 288 288 290 296 297 305 304 302 303 308 304
154 182 186 173 164 165 184 186 216 272 278 288 288 286 288 293 302 302 301 283 280 284 291 293 291 288 293 297 295 293 289 286 287 286 289 293 295 298 299 299 301 306 303
136 154 152 151 149 164 158 125 253 271 283 292 289 290 289 294 306 307 305 301 288 285 288 294 299 301 303 291 292 296 296 292 287 283 284 286 291 295 296 296 296 295 289
105 98 100 110 117 123 118 163 288 292 289 289 297 298 298 302 311 313 316 306 293 290 288 289 294 299 300 303 300 301 295 294 293 289 279 285 292 294 286 284 287 291 288
101 88 79 102 109 92 110 272 296 324 319 314 311 306 305 305 313 317 321 307 302 299 298 301 301 296 303 311 311 304 302 301 305 303 300 300 301 303 304 306 305 305 301
122 123 93 92 98 101 265 299 344 339 311 320 325 322 313 307 315 321 324 310 307 308 308 303 305 308 310 315 311 305 306 307 310 314 314 315 313 315 320 312 298 293 295
89 74 63 60 69 58 25 24 12 357 348 336 329 326 323 320 323 325 326 323 305 306 307 309 308 316 317 319 320 312 306 312 314 315 319 324 330 333 333 331 320 292 286
68 59 44 35 32 39 51 21 20 16 355 338 335 329 325 324 331 327 331 332 326 311 305 308 313 321 323 325 329 326 328 329 322 323 332 335 333 330 327 330 329 321 300
69 54 36 31 35 42 57 31 9 12 351 329 330 326 326 328 326 332 333 334 333 328 312 318 325 333 336 335 339 340 342 341 331 332 332 326 322 314 315 321 323 324 333
75 54 38 41 27 21 26 30 16 344 328 320 324 322 321 324 321 320 321 327 335 334 327 326 334 341 341 340 345 348 346 340 336 328 325 319 321 323 326 322 319 327 352
66 51 36 35 32 21 19 22 353 311 289 303 299 298 309 317 322 328 330 326 322 321 326 331 338 342 350 351 350 350 346 345 346 335 327 325 328 332 332 333 332 342 3
62 43 29 23 19 22 23 8 12 9 359 351 337 323 310 315 324 333 338 340 342 340 343 344 344 346 345 342 342 342 341 340 336 331 326 323 325 329 331 337 341 351 356
67 40 28 26 22 12 7 4 351 358 9 7 358 351 345 338 340 341 342 344 351 357 3 353 346 342 337 335 335 333 328 329 330 330 330 327 324 326 329 336 346 358 1
41 35 38 28 16 1 348 343 342 342 343 346 351 355 354 350 348 350 353 360 2 6 1 346 337 333 329 326 326 324 322 326 331 331 332 330 327 325 332 339 344 351 354
36 34 40 31 18 6 356 357 359 353 344 337 338 346 355 353 355 1 4 8 352 347 342 336 330 325 321 319 318 316 316 320 324 326 330 330 326 327 334 337 348 6 9
31 31 28 32 27 17 6 2 360 355 347 344 341 336 339 347 353 353 357 353 349 337 332 329 325 321 318 316 314 314 317 322 324 325 327 328 328 329 330 336 2 23 25
25 25 24 25 20 9 1 355 350 349 345 338 329 330 337 340 340 340 342 342 336 331 328 324 320 318 316 314 314 315 317 317 316 319 321 320 321 325 331 339 4 22 30
36 21 12 15 9 10 4 355 345 337 331 324 322 331 337 342 337 333 332 331 330 325 319 316 315 315 313 311 309 309 310 311 311 312 313 314 314 318 323 334 4 19 33
40 28 25 19 13 4 1 347 340 331 327 325 326 330 332 334 332 329 326 326 326 325 325 323 318 318 318 312 306 297 293 294 294 291 292 297 296 296 297 302 336 28 23
37 32 26 12 6 0 344 334 332 332 329 326 328 326 324 324 325 324 324 324 323 323 325 322 317 314 315 316 312 305 295 289 287 281 276 269 274 275 269 278 330 87 81
27 15 10 2 348 339 334 334 334 333 331 330 327 325 324 325 324 324 326 328 327 325 325 321 317 316 316 316 314 310 308 307 302 287 278 261 260 260 227 164 89 84 75
14 8 359 346 339 335 333 331 330 328 327 325 325 325 323 324 323 324 328 330 329 326 324 321 321 320 320 318 315 318 322 324 324 316 306 241 177 115 97 89 87 84 88